Provo, UT

8:23 PM MDT on September 28, 2016 (GMT -0600)
Provo Municipal

Weather History for KPVU - February, 2015

Change the Weather History Date:

Saturday, February 28, 2015

  Actual Average Record
Temperature  
Mean Temperature 33 °F -  
Max Temperature 42 °F 40 °F 64 °F (1999)
Min Temperature 24 °F 25 °F 7 °F (1984)
Degree Days  
Heating Degree Days 32    
Moisture  
Dew Point 25 °F    
Average Humidity 75    
Maximum Humidity 93    
Minimum Humidity 42    
Precipitation  
Precipitation 0.01 in - - ()
Sea Level Pressure  
Sea Level Pressure 29.75 in    
Wind  
Wind Speed 5 mph (NW)    
Max Wind Speed 14 mph    
Max Gust Speed 21 mph    
Visibility 10 miles    
Events Snow    
Averages and records for this station are not official NWS values.
T = Trace of Precipitation, MM = Missing Value Source: NWS Daily Summary

Daily Weather History Graph

Daily Weather History Graph

Search for Another Location

Airport or City:

Trip Planner

Search our weather history database for the weather conditions in past years. The results will help you decide how hot, cold, wet, or windy it might be!

Date:

Astronomy

Feb. 28, 2015 Rise Set
Actual Time 7:02 AM MST 6:17 PM MST
Civil Twilight 6:34 AM MST 6:44 PM MST
Nautical Twilight 6:03 AM MST 7:16 PM MST
Astronomical Twilight 5:31 AM MST 7:47 PM MST
Moon 2:02 PM MST (2/28) 3:44 AM MST (2/28)
Length of Visible Light 12h 09m
Length of Day
11h 15m
Waxing Gibbous, 79% of the Moon is Illuminated
Feb 28
Waxing Gibbous
Mar 5
Full
Mar 13
Last Quarter
Mar 20
New
Mar 27
First Quarter

Hourly Weather History & Observations

Time (MST) Temp. Windchill Dew Point Humidity Pressure Visibility Wind Dir Wind Speed Gust Speed Precip Events Conditions
12:15 AM 28.4 °F 23.3 °F 21.2 °F 74% 29.70 in 10.0 mi West 4.6 mph - N/A   Clear
12:35 AM 28.4 °F - 21.2 °F 74% 29.70 in 10.0 mi Calm Calm - N/A   Clear
12:55 AM 26.6 °F 18.2 °F 21.2 °F 80% 29.70 in 10.0 mi NW 8.1 mph - N/A   Clear
1:15 AM 28.4 °F 21.2 °F 21.2 °F 74% 29.69 in 10.0 mi NW 6.9 mph - N/A   Clear
1:35 AM 26.6 °F - 19.4 °F 74% 29.70 in 10.0 mi Calm Calm - N/A   Clear
1:55 AM 26.6 °F - 21.2 °F 80% 29.69 in 10.0 mi Calm Calm - N/A   Clear
2:15 AM 24.8 °F 20.5 °F 19.4 °F 80% 29.70 in 10.0 mi WNW 3.5 mph - N/A   Clear
2:35 AM 24.8 °F 19.1 °F 21.2 °F 86% 29.69 in 10.0 mi NNW 4.6 mph - N/A   Clear
2:55 AM 24.8 °F 15.3 °F 19.4 °F 80% 29.69 in 10.0 mi NNW 9.2 mph - N/A   Clear
3:15 AM 28.4 °F 21.2 °F 21.2 °F 74% 29.69 in 10.0 mi NW 6.9 mph - N/A   Clear
3:35 AM 24.8 °F 20.5 °F 15.8 °F 69% 29.67 in 10.0 mi East 3.5 mph - N/A   Clear
3:55 AM 24.8 °F 20.5 °F 17.6 °F 74% 29.67 in 10.0 mi East 3.5 mph - N/A   Clear
4:15 AM 24.8 °F 19.1 °F 17.6 °F 74% 29.67 in 10.0 mi SSW 4.6 mph - N/A   Clear
4:35 AM 28.4 °F 19.7 °F 24.8 °F 86% 29.66 in 10.0 mi SSW 9.2 mph - N/A   Clear
4:55 AM 33.8 °F 27.7 °F 21.2 °F 60% 29.65 in 10.0 mi West 6.9 mph - N/A   Clear
5:15 AM 33.8 °F 27.0 °F 21.2 °F 60% 29.65 in 10.0 mi WNW 8.1 mph - N/A   Clear
5:35 AM 30.2 °F 24.3 °F 23.0 °F 75% 29.65 in 10.0 mi NW 5.8 mph - N/A   Clear
5:55 AM 33.8 °F 26.4 °F 24.8 °F 70% 29.66 in 10.0 mi West 9.2 mph - N/A   Clear
6:15 AM 32.0 °F 27.5 °F 19.4 °F 60% 29.66 in 10.0 mi NW 4.6 mph - N/A   Clear
6:35 AM 28.4 °F - 19.4 °F 69% 29.67 in 10.0 mi Calm Calm - N/A   Clear
10:58 AM 42.8 °F 35.8 °F 21.2 °F 42% 29.70 in 15.0 mi ESE 13.8 mph 20.7 mph N/A   Mostly Cloudy
11:59 AM 42.8 °F 37.0 °F 23.0 °F 46% 29.71 in 15.0 mi SE 10.4 mph - N/A   Overcast
12:52 PM 42.8 °F 36.6 °F 23.0 °F 46% 29.69 in 15.0 mi SE 11.5 mph - N/A   Overcast
1:31 PM 41.0 °F 33.5 °F 24.8 °F 53% 29.68 in 15.0 mi NW 13.8 mph - N/A   Mostly Cloudy
1:53 PM 39.2 °F 31.2 °F 26.6 °F 61% 29.68 in 15.0 mi NW 13.8 mph - N/A   Mostly Cloudy
2:48 PM 39.2 °F 34.2 °F 28.4 °F 65% 29.69 in 10.0 mi WNW 6.9 mph - N/A   Overcast
3:50 PM 39.2 °F 31.2 °F 28.4 °F 65% 29.71 in 10.0 mi NW 13.8 mph - N/A   Overcast
4:54 PM 35.6 °F 28.0 °F 30.2 °F 81% 29.76 in 10.0 mi NW 10.4 mph - N/A Snow Light Snow
5:47 PM 35.6 °F 30.7 °F 30.2 °F 81% 29.78 in 3.0 mi NNW 5.8 mph - N/A Snow Light Snow
6:49 PM 33.8 °F - 30.2 °F 87% 29.81 in 10.0 mi Calm Calm - N/A   Mostly Cloudy
7:55 PM 35.6 °F 31.7 °F 32.0 °F 87% 29.85 in 10.0 mi Variable 4.6 mph - N/A   Mostly Cloudy
8:47 PM 33.8 °F 29.6 °F 30.2 °F 87% 29.86 in 10.0 mi Variable 4.6 mph - N/A   Mostly Cloudy
8:55 PM 33.8 °F 29.6 °F 30.2 °F 87% 29.87 in 8.0 mi NW 4.6 mph - N/A   Overcast
9:15 PM 33.8 °F 27.7 °F 32.0 °F 93% 29.88 in 8.0 mi WNW 6.9 mph - N/A   Overcast
9:35 PM 33.8 °F 28.6 °F 30.2 °F 87% 29.89 in 10.0 mi NNW 5.8 mph - N/A   Overcast
9:55 PM 35.6 °F 32.8 °F 32.0 °F 87% 29.90 in 9.0 mi NNW 3.5 mph - 0.01 in   Overcast
10:15 PM 33.8 °F - 32.0 °F 93% 29.91 in 6.0 mi Calm Calm - N/A   Overcast
10:35 PM 33.8 °F 29.6 °F 30.2 °F 87% 29.91 in 7.0 mi NNW 4.6 mph - N/A   Mostly Cloudy
10:55 PM 33.8 °F - 30.2 °F 87% 29.92 in 10.0 mi Calm Calm - N/A   Mostly Cloudy
11:15 PM 33.8 °F 30.8 °F 30.2 °F 87% 29.92 in 8.0 mi North 3.5 mph - N/A   Mostly Cloudy
11:35 PM 33.8 °F - 30.2 °F 87% 29.93 in 5.0 mi Calm Calm - N/A   Mostly Cloudy
11:55 PM 33.8 °F - 30.2 °F 87% 29.94 in 4.0 mi Calm Calm - N/A   Mostly Cloudy